When you browse on this site, cookies collect data to enhance your experience and personalize the content and advertising you see.
Visit our Privacy Policy to learn more. By continuing to use the site, you agree to this use of cookies and data.
  • In Lithuania
  • List of Countries
  • For 7 days
  • Water Temperature
  • Satellite Maps
  • Weather Map
  • Weather Widgets
  • user-avatar
    Login

    Hourly Weather Thunder Bay

    Today, 20 May, Monday

    Time Temperature Precipitation Wind Pressure Humidity
    00:00 +3°C° 0 mm 2 mps 736 mmHg 72%
    01:00 +2°C° 0 mm 2 mps 736 mmHg 73%
    02:00 +1°C° 0 mm 3 mps 737 mmHg 74%
    03:00 +1°C° 0 mm 3 mps 737 mmHg 75%
    04:00 +2°C° 0 mm 3 mps 738 mmHg 72%
    05:00 +2°C° 0 mm 3 mps 738 mmHg 68%
    06:00 +4°C° 0 mm 3 mps 738 mmHg 66%
    07:00 +7°C° 0 mm 3 mps 738 mmHg 58%
    08:00 +9°C° 0 mm 3 mps 739 mmHg 51%
    09:00 +11°C° 0 mm 4 mps 739 mmHg 44%
    10:00 +12°C° 0 mm 3 mps 739 mmHg 42%
    11:00 +14°C° 0 mm 3 mps 739 mmHg 40%
    12:00 +16°C° 0 mm 3 mps 739 mmHg 38%
    13:00 +16°C° 0 mm 2 mps 739 mmHg 37%
    14:00 +17°C° 0 mm 2 mps 739 mmHg 36%
    15:00 +18°C° 0 mm 2 mps 739 mmHg 35%
    16:00 +16°C° 0 mm 2 mps 739 mmHg 42%
    17:00 +14°C° 0 mm 2 mps 739 mmHg 48%
    18:00 +12°C° 0 mm 2 mps 739 mmHg 55%
    19:00 +11°C° 0 mm 1 mps 740 mmHg 60%
    20:00 +9°C° 0 mm 1 mps 740 mmHg 65%
    21:00 +8°C° 0 mm 1 mps 740 mmHg 70%
    22:00 +7°C° 0 mm 1 mps 741 mmHg 71%
    23:00 +7°C° 0 mm 1 mps 741 mmHg 71%

    Tomorrow, 21 May, Tuesday

    Time Temperature Precipitation Wind Pressure Humidity
    00:00 +7°C° 0 mm 1 mps 741 mmHg 72%
    01:00 +7°C° 0 mm 1 mps 741 mmHg 72%
    02:00 +6°C° 0 mm 1 mps 741 mmHg 72%
    03:00 +6°C° 0 mm 1 mps 741 mmHg 72%
    04:00 +7°C° 0 mm 1 mps 742 mmHg 68%
    05:00 +8°C° 0 mm 1 mps 742 mmHg 64%
    06:00 +9°C° 0 mm 1 mps 742 mmHg 60%
    07:00 +12°C° 0 mm 1 mps 742 mmHg 53%
    08:00 +14°C° 0 mm 1 mps 743 mmHg 45%
    09:00 +18°C° 0 mm 1 mps 743 mmHg 38%
    10:00 +17°C° 0 mm 2 mps 742 mmHg 37%
    11:00 +17°C° 0 mm 3 mps 742 mmHg 36%
    12:00 +17°C° 0 mm 4 mps 742 mmHg 35%
    13:00 +17°C° 0 mm 4 mps 742 mmHg 35%
    14:00 +17°C° 0 mm 4 mps 742 mmHg 36%
    15:00 +15°C° 0 mm 4 mps 741 mmHg 36%
    16:00 +14°C° 0 mm 3 mps 741 mmHg 39%
    17:00 +13°C° 0 mm 3 mps 741 mmHg 42%
    18:00 +13°C° 0 mm 2 mps 740 mmHg 44%
    19:00 +12°C° 0 mm 2 mps 740 mmHg 48%
    20:00 +9°C° 0 mm 2 mps 740 mmHg 53%
    21:00 +8°C° 0 mm 1 mps 740 mmHg 57%
    22:00 +7°C° 0 mm 2 mps 740 mmHg 56%
    23:00 +7°C° 0 mm 2 mps 740 mmHg 56%

    Day after tomorrow, 22 May, Wednesday

    Time Temperature Precipitation Wind Pressure Humidity
    00:00 +7°C° 0 mm 2 mps 740 mmHg 55%
    01:00 +7°C° 0 mm 3 mps 739 mmHg 55%
    02:00 +8°C° 0 mm 3 mps 739 mmHg 54%
    03:00 +7°C° 0 mm 4 mps 738 mmHg 54%
    04:00 +7°C° 0 mm 4 mps 738 mmHg 58%
    05:00 +6°C° 0 mm 4 mps 738 mmHg 61%
    06:00 +7°C° 0 mm 3 mps 738 mmHg 64%
    07:00 +7°C° 0.6 mm 3 mps 738 mmHg 73%
    08:00 +5°C° 0.6 mm 3 mps 738 mmHg 81%
    09:00 +5°C° 0.6 mm 3 mps 738 mmHg 89%
    10:00 +5°C° 0.6 mm 5 mps 738 mmHg 89%
    11:00 +4°C° 0.6 mm 6 mps 738 mmHg 89%
    12:00 +4°C° 0.6 mm 7 mps 738 mmHg 89%
    13:00 +4°C° 0.1 mm 7 mps 737 mmHg 90%
    14:00 +4°C° 0.1 mm 7 mps 736 mmHg 91%
    15:00 +4°C° 0.1 mm 6 mps 736 mmHg 91%
    16:00 +3°C° 0.1 mm 6 mps 736 mmHg 93%
    17:00 +3°C° 0.1 mm 5 mps 735 mmHg 94%
    18:00 +4°C° 0.1 mm 4 mps 735 mmHg 96%
    19:00 +4°C° 0 mm 4 mps 735 mmHg 96%
    20:00 +4°C° 0 mm 4 mps 735 mmHg 96%
    21:00 +4°C° 0 mm 4 mps 735 mmHg 97%
    22:00 +4°C° 0 mm 4 mps 735 mmHg 96%
    23:00 +4°C° 0 mm 4 mps 734 mmHg 96%

    23 May, Thursday

    Time Temperature Precipitation Wind Pressure Humidity
    00:00 +4°C° 0 mm 4 mps 734 mmHg 96%
    01:00 +4°C° 0.4 mm 4 mps 733 mmHg 96%
    02:00 +4°C° 0.4 mm 3 mps 733 mmHg 97%
    03:00 +4°C° 0.4 mm 3 mps 732 mmHg 97%
    04:00 +5°C° 1.6 mm 3 mps 733 mmHg 97%
    05:00 +5°C° 1.6 mm 3 mps 733 mmHg 97%
    06:00 +5°C° 1.6 mm 3 mps 733 mmHg 97%
    07:00 +7°C° 2.1 mm 3 mps 734 mmHg 96%
    08:00 +7°C° 2.1 mm 3 mps 734 mmHg 96%
    09:00 +7°C° 2.1 mm 3 mps 735 mmHg 95%
    10:00 +10°C° 0.1 mm 3 mps 736 mmHg 85%
    11:00 +12°C° 0.1 mm 3 mps 736 mmHg 75%
    12:00 +14°C° 0.1 mm 3 mps 737 mmHg 64%
    13:00 +16°C° 0 mm 3 mps 737 mmHg 62%
    14:00 +16°C° 0 mm 2 mps 738 mmHg 60%
    15:00 +17°C° 0 mm 2 mps 738 mmHg 58%
    16:00 +17°C° 0 mm 2 mps 739 mmHg 58%
    17:00 +18°C° 0 mm 1 mps 739 mmHg 59%
    18:00 +18°C° 0 mm 1 mps 739 mmHg 60%
    19:00 +14°C° 0 mm 1 mps 739 mmHg 67%
    20:00 +12°C° 0 mm 1 mps 739 mmHg 74%
    21:00 +10°C° 0 mm 1 mps 739 mmHg 81%
    22:00 +10°C° 0 mm 1 mps 740 mmHg 82%
    23:00 +9°C° 0 mm 1 mps 740 mmHg 83%

    24 May, Friday

    Time Temperature Precipitation Wind Pressure Humidity
    00:00 +9°C° 0 mm 1 mps 740 mmHg 84%
    01:00 +9°C° 0 mm 1 mps 740 mmHg 85%
    02:00 +9°C° 0 mm 1 mps 740 mmHg 86%
    03:00 +9°C° 0 mm 1 mps 740 mmHg 87%
    04:00 +8°C° 0 mm 2 mps 739 mmHg 85%
    05:00 +9°C° 0 mm 2 mps 739 mmHg 83%
    06:00 +9°C° 0 mm 3 mps 738 mmHg 81%
    07:00 +8°C° 0.9 mm 4 mps 738 mmHg 86%
    08:00 +7°C° 0.9 mm 5 mps 737 mmHg 90%
    09:00 +5°C° 0.9 mm 6 mps 736 mmHg 94%
    10:00 +5°C° 0.5 mm 6 mps 736 mmHg 94%
    11:00 +5°C° 0.5 mm 6 mps 735 mmHg 94%
    12:00 +5°C° 0.5 mm 6 mps 735 mmHg 93%
    13:00 +5°C° 0.5 mm 6 mps 734 mmHg 95%
    14:00 +5°C° 0.5 mm 7 mps 733 mmHg 96%
    15:00 +5°C° 0.5 mm 7 mps 732 mmHg 98%
    16:00 +5°C° 0.2 mm 6 mps 731 mmHg 98%
    17:00 +5°C° 0.2 mm 6 mps 730 mmHg 98%
    18:00 +6°C° 0.2 mm 5 mps 729 mmHg 99%
    19:00 +6°C° 0.1 mm 5 mps 728 mmHg 99%
    20:00 +6°C° 0.1 mm 4 mps 728 mmHg 99%
    21:00 +8°C° 0.1 mm 3 mps 727 mmHg 99%
    22:00 +9°C° 0.5 mm 3 mps 726 mmHg 99%
    23:00 +9°C° 0.5 mm 2 mps 726 mmHg 99%

    25 May, Saturday

    Time Temperature Precipitation Wind Pressure Humidity
    00:00 +10°C° 0.5 mm 2 mps 725 mmHg 99%
    01:00 +10°C° 0.1 mm 2 mps 725 mmHg 98%
    02:00 +9°C° 0.1 mm 3 mps 725 mmHg 97%
    03:00 +8°C° 0.1 mm 4 mps 724 mmHg 96%
    04:00 +9°C° 0.1 mm 3 mps 724 mmHg 95%
    05:00 +9°C° 0.1 mm 3 mps 725 mmHg 95%
    06:00 +9°C° 0.1 mm 3 mps 725 mmHg 95%
    07:00 +10°C° 0 mm 3 mps 725 mmHg 92%
    08:00 +11°C° 0 mm 4 mps 726 mmHg 90%
    09:00 +12°C° 0 mm 4 mps 726 mmHg 87%
    10:00 +12°C° 0 mm 4 mps 727 mmHg 82%
    11:00 +13°C° 0 mm 5 mps 728 mmHg 77%
    12:00 +14°C° 0 mm 5 mps 729 mmHg 72%
    13:00 +14°C° 0 mm 5 mps 730 mmHg 73%
    14:00 +14°C° 0 mm 4 mps 731 mmHg 75%
    15:00 +14°C° 0 mm 4 mps 731 mmHg 77%
    16:00 +13°C° 0 mm 4 mps 732 mmHg 76%
    17:00 +13°C° 0 mm 4 mps 732 mmHg 76%
    18:00 +12°C° 0 mm 3 mps 733 mmHg 75%
    19:00 +11°C° 0 mm 3 mps 734 mmHg 79%
    20:00 +10°C° 0 mm 2 mps 734 mmHg 84%
    21:00 +9°C° 0 mm 2 mps 735 mmHg 88%
    22:00 +8°C° 0 mm 2 mps 735 mmHg 90%
    23:00 +7°C° 0 mm 2 mps 735 mmHg 92%
    Show more